User: anonymous
Location: Unspecified
(0.0000°N, 0.0000°E)
Time: 06:12:46
(UTC+02:00)
Language:

Cosmos 1703 Rocket - Orbit

View from above orbital plane
View from above orbital plane
View from above satellite
View from above satellite

Ground track
Ground track

The orbit data is extracted from the following two-line orbital elements,

1 16263U 85108B   14264.74113002  .00000267  00000-0  30153-4 0  7736
2 16263 082.5051 331.6811 0020921 043.1371 102.2915 14.82469567556274
Epoch (UTC): 21 September 2014 17:47:13
Eccentricity: 0.0020921
inclination: 82.5051°
perigee height: 607 km
apogee height: 636 km
right ascension of ascending node: 331.6811°
argument of perigee: 43.1371°
revolutions per day: 14.82469567
mean anomaly at epoch: 102.2915°
orbit number at epoch: 55627

The dashed part of the orbit path shows where the satellite is in the earth's shadow,  

DLR